Weather History for KSGU - November, 2013

Change the Weather History Date:

Tuesday, November 5, 2013

  Actual Average Record
Temperature  
Mean Temperature 42 °F -  
Max Temperature 55 °F 72 °F 83 °F (1931)
Min Temperature 30 °F 38 °F 20 °F (1935)
Degree Days  
Heating Degree Days 22    
Moisture  
Dew Point 18 °F    
Average Humidity 38    
Maximum Humidity 65    
Minimum Humidity 19    
Precipitation  
Precipitation 0.00 in - - ()
Sea Level Pressure  
Sea Level Pressure 30.22 in    
Wind  
Wind Speed 5 mph (NE)    
Max Wind Speed 15 mph    
Max Gust Speed 17 mph    
Visibility 10 miles    
Events      
Averages and records for this station are not official NWS values.
T = Trace of Precipitation, MM = Missing Value Source: NWS Daily Summary

Daily Weather History Graph

Daily Weather History Graph

Search for Another Location

Airport or City:

Trip Planner

Search our weather history database for the weather conditions in past years. The results will help you decide how hot, cold, wet, or windy it might be!

Date:

Astronomy

Nov. 05, 2013 Rise Set
Actual Time 7:03 AM MST 5:32 PM MST
Civil Twilight 6:35 AM MST 5:59 PM MST
Nautical Twilight 6:04 AM MST 6:30 PM MST
Astronomical Twilight 5:34 AM MST 7:00 PM MST
Moon 9:20 AM MST (11/5) 7:39 PM MST (11/5)
Length of Visible Light 11h 23m
Length of Day
10h 29m
Waxing Crescent, 7% of the Moon is Illuminated
Nov 5
Waxing Crescent
Nov 9
First Quarter
Nov 17
Full
Nov 25
Last Quarter
Dec 2
New

Hourly Weather History & Observations

Time (MST) Temp. Windchill Dew Point Humidity Pressure Visibility Wind Dir Wind Speed Gust Speed Precip Events Conditions
12:15 AM 37.4 °F 30.8 °F 23.0 °F 56% 30.04 in 10.0 mi SE 9.2 mph - N/A   Clear
12:35 AM 37.4 °F 32.8 °F 23.0 °F 56% 30.05 in 10.0 mi SE 5.8 mph - N/A   Clear
12:55 AM 35.6 °F 31.7 °F 21.2 °F 56% 30.06 in 10.0 mi SSE 4.6 mph - N/A   Clear
1:15 AM 37.4 °F 34.9 °F 21.2 °F 52% 30.06 in 10.0 mi South 3.5 mph - N/A   Clear
1:35 AM 35.6 °F 29.9 °F 21.2 °F 56% 30.07 in 10.0 mi SSE 6.9 mph - N/A   Clear
2:15 AM 35.6 °F 28.6 °F 21.2 °F 56% 30.08 in 10.0 mi SE 9.2 mph - N/A   Clear
2:35 AM 33.8 °F 27.0 °F 21.2 °F 60% 30.09 in 10.0 mi SSE 8.1 mph - N/A   Clear
2:55 AM 35.6 °F 29.2 °F 21.2 °F 56% 30.08 in 10.0 mi SSE 8.1 mph - N/A   Clear
3:15 AM 35.6 °F - 21.2 °F 56% 30.09 in 10.0 mi Calm Calm - N/A   Clear
3:35 AM 35.6 °F 29.9 °F 21.2 °F 56% 30.10 in 10.0 mi NW 6.9 mph - N/A   Clear
4:15 AM 35.6 °F - 23.0 °F 60% 30.11 in 10.0 mi Calm Calm - N/A   Clear
4:35 AM 37.4 °F - 21.2 °F 52% 30.12 in 10.0 mi Calm Calm - N/A   Clear
4:55 AM 33.8 °F 27.7 °F 19.4 °F 56% 30.12 in 10.0 mi South 6.9 mph - N/A   Clear
5:15 AM 35.6 °F 32.8 °F 19.4 °F 52% 30.13 in 10.0 mi WSW 3.5 mph - N/A   Clear
5:35 AM 33.8 °F 30.8 °F 23.0 °F 65% 30.15 in 10.0 mi North 3.5 mph - N/A   Clear
5:55 AM 35.6 °F - 21.2 °F 56% 30.16 in 10.0 mi Calm Calm - N/A   Clear
6:15 AM 30.2 °F 24.3 °F 19.4 °F 64% 30.17 in 10.0 mi East 5.8 mph - N/A   Clear
6:35 AM 33.8 °F 30.8 °F 19.4 °F 56% 30.17 in 10.0 mi SW 3.5 mph - N/A   Clear
7:15 AM 35.6 °F 31.7 °F 21.2 °F 56% 30.19 in 10.0 mi SSE 4.6 mph - N/A   Clear
7:35 AM 33.8 °F 28.6 °F 21.2 °F 60% 30.20 in 10.0 mi NNE 5.8 mph - N/A   Clear
7:55 AM 33.8 °F 30.8 °F 23.0 °F 65% 30.22 in 10.0 mi North 3.5 mph - N/A   Clear
8:15 AM 35.6 °F 32.8 °F 24.8 °F 65% 30.23 in 10.0 mi North 3.5 mph - N/A   Clear
8:35 AM 39.2 °F 37.0 °F 24.8 °F 56% 30.24 in 10.0 mi NNW 3.5 mph - N/A   Clear
8:55 AM 39.2 °F - 19.4 °F 45% 30.25 in 10.0 mi Calm Calm - N/A   Clear
9:15 AM 42.8 °F - 21.2 °F 42% 30.25 in 10.0 mi Calm Calm - N/A   Clear
9:35 AM 42.8 °F - 21.2 °F 42% 30.26 in 10.0 mi Calm Calm - N/A   Clear
9:55 AM 42.8 °F - 19.4 °F 39% 30.27 in 10.0 mi Calm Calm - N/A   Clear
10:15 AM 44.6 °F 41.4 °F 19.4 °F 37% 30.26 in 10.0 mi NW 5.8 mph - N/A   Clear
10:35 AM 44.6 °F 40.7 °F 21.2 °F 39% 30.27 in 10.0 mi WNW 6.9 mph - N/A   Clear
10:55 AM 46.4 °F 43.5 °F 19.4 °F 34% 30.27 in 10.0 mi WNW 5.8 mph - N/A   Clear
11:15 AM 46.4 °F 42.9 °F 19.4 °F 34% 30.27 in 10.0 mi West 6.9 mph - N/A   Clear
11:35 AM 48.2 °F - 19.4 °F 32% 30.27 in 10.0 mi West 8.1 mph - N/A   Clear
11:55 AM 50.0 °F - 17.6 °F 28% 30.26 in 10.0 mi WSW 3.5 mph - N/A   Clear
12:15 PM 51.8 °F - 17.6 °F 26% 30.25 in 10.0 mi WSW 3.5 mph - N/A   Clear
12:35 PM 53.6 °F - 17.6 °F 24% 30.24 in 10.0 mi NNW 3.5 mph - N/A   Clear
12:55 PM 51.8 °F - 15.8 °F 24% 30.23 in 10.0 mi Calm Calm - N/A   Clear
1:35 PM 55.4 °F - 15.8 °F 21% 30.22 in 10.0 mi East 3.5 mph - N/A   Clear
1:55 PM 53.6 °F - 15.8 °F 22% 30.21 in 10.0 mi SSW 3.5 mph - N/A   Clear
2:35 PM 53.6 °F - 14.0 °F 21% 30.22 in 10.0 mi Calm Calm - N/A   Clear
2:55 PM 55.4 °F - 14.0 °F 20% 30.21 in 10.0 mi Calm Calm - N/A   Clear
3:15 PM 55.4 °F - 14.0 °F 20% 30.21 in 10.0 mi Calm Calm - N/A   Clear
3:35 PM 55.4 °F - 14.0 °F 20% 30.21 in 10.0 mi Calm Calm - N/A   Clear
3:55 PM 55.4 °F - 14.0 °F 20% 30.21 in 10.0 mi Calm Calm - N/A   Clear
4:15 PM 55.4 °F - 14.0 °F 20% 30.22 in 10.0 mi Calm Calm - N/A   Clear
4:35 PM 55.4 °F - 14.0 °F 20% 30.23 in 10.0 mi WSW 3.5 mph - N/A   Clear
4:55 PM 55.4 °F - 14.0 °F 20% 30.23 in 10.0 mi Calm Calm - N/A   Clear
5:15 PM 55.4 °F - 14.0 °F 20% 30.23 in 10.0 mi ESE 3.5 mph - N/A   Clear
5:35 PM 53.6 °F - 12.2 °F 19% 30.24 in 10.0 mi SSE 6.9 mph - N/A   Clear
5:55 PM 50.0 °F - 12.2 °F 22% 30.24 in 10.0 mi East 9.2 mph - N/A   Clear
6:15 PM 51.8 °F - 15.8 °F 24% 30.25 in 10.0 mi NE 9.2 mph - N/A   Clear
6:35 PM 50.0 °F - 15.8 °F 26% 30.25 in 10.0 mi ENE 12.7 mph - N/A   Clear
6:55 PM 50.0 °F - 15.8 °F 26% 30.26 in 10.0 mi ENE 13.8 mph - N/A   Clear
7:15 PM 48.2 °F - 15.8 °F 27% 30.27 in 10.0 mi ENE 11.5 mph - N/A   Clear
7:55 PM 48.2 °F - 15.8 °F 27% 30.29 in 10.0 mi North 6.9 mph - N/A   Clear
8:15 PM 48.2 °F - 15.8 °F 27% 30.29 in 10.0 mi NNE 8.1 mph - N/A   Clear
8:35 PM 46.4 °F 42.4 °F 14.0 °F 27% 30.30 in 10.0 mi NE 8.1 mph - N/A   Clear
8:55 PM 46.4 °F 40.1 °F 15.8 °F 29% 30.30 in 10.0 mi NE 15.0 mph - N/A   Clear
9:15 PM 46.4 °F 40.7 °F 15.8 °F 29% 30.30 in 10.0 mi NE 12.7 mph 17.3 mph N/A   Clear
9:35 PM 46.4 °F 40.7 °F 15.8 °F 29% 30.31 in 10.0 mi NE 12.7 mph - N/A   Clear
9:55 PM 46.4 °F 41.9 °F 15.8 °F 29% 30.32 in 10.0 mi NNE 9.2 mph - N/A   Clear
10:15 PM 44.6 °F 39.7 °F 15.8 °F 31% 30.32 in 10.0 mi NNE 9.2 mph - N/A   Clear
10:35 PM 42.8 °F 37.0 °F 15.8 °F 34% 30.32 in 10.0 mi North 10.4 mph - N/A   Clear
10:55 PM 42.8 °F 37.0 °F 14.0 °F 31% 30.33 in 10.0 mi North 10.4 mph - N/A   Clear
11:15 PM 42.8 °F 40.1 °F 15.8 °F 34% 30.33 in 10.0 mi NNE 4.6 mph - N/A   Clear
11:35 PM 42.8 °F 41.1 °F 15.8 °F 34% 30.33 in 10.0 mi NNW 3.5 mph - N/A   Clear
11:55 PM 39.2 °F 37.0 °F 14.0 °F 36% 30.34 in 10.0 mi SSE 3.5 mph - N/A   Clear